Location: Lafig�re
(44.4503°N, 4.0357°E)
Time: 02:33:50
(UTC+00:00)

Transit 4A - Pass Details

Date: 30 January 2021
Orbit: 866 x 978 km, 66.8° (Epoch: 02 March)

Event Time Altitude Azimuth Distance (km) Brightness Sun altitude
Rises 16:47:33 0° 193° (SSW) 3,657 11.6 -0.4°
Reaches altitude 10° 16:50:09 10° 189° (S) 2,718 10.9 -0.8°
Maximum altitude 16:56:19 53° 114° (ESE) 1,190 8.3 -1.8°
Drops below altitude 10° 17:02:28 10° 40° (NE) 2,718 9.8 -2.8°
Sets 17:05:04 0° 36° (NE) 3,658 10.5 -3.2°
